Theta_e
279 279 279 279 280 280 280 280 280 279 279 278 277 277 276 276 275 274 274 274 273 272 272 271 272 272 272 272 273 273 273 274 274 275 275 275 275 275 275 275 275 275 275 275 275 275 275 276 277 277 278 278 278 278 279 280 281 282 283 284 285 287 290 293 295 296 297 297 298 298 299 300 301 302 302 302 302 302 304 307 312 319 322 323 324
279 278 278 279 280 280 280 279 279 278 278 277 276 276 275 275 274 273 273 272 271 271 271 271 271 271 272 272 272 272 272 273 273 273 273 273 273 274 274 274 274 274 274 274 274 274 275 275 276 276 277 277 277 277 278 278 279 279 280 282 284 286 288 292 295 295 296 297 298 298 299 300 301 302 302 302 301 301 303 305 308 315 321 322 322
278 278 278 279 280 279 279 278 278 277 277 276 275 275 274 274 273 272 271 271 270 270 270 270 271 271 271 271 271 271 271 272 272 272 272 272 272 272 273 273 273 273 273 273 273 273 274 275 275 276 276 276 276 277 277 277 277 278 279 281 283 285 287 290 294 295 296 297 298 299 299 300 301 302 302 302 301 301 303 305 307 313 320 321 321
277 278 279 279 279 279 278 277 276 276 275 274 274 274 274 273 272 270 270 270 269 270 270 270 270 270 270 270 270 270 270 270 270 270 270 270 270 271 271 271 271 272 272 272 272 273 273 274 274 275 275 276 276 276 276 276 277 278 280 281 282 284 286 289 293 295 296 297 298 298 299 300 301 302 302 302 302 302 303 305 306 312 319 321 320
277 278 279 279 278 277 277 276 275 275 274 273 273 273 273 271 270 269 269 269 269 269 269 268 268 268 268 268 268 268 268 268 268 268 268 269 269 269 269 270 270 270 271 271 271 272 272 273 274 274 275 275 275 275 275 276 276 277 279 282 283 284 286 289 293 295 295 296 297 298 299 299 300 301 302 303 302 302 304 306 307 311 317 321 319
277 278 278 278 277 277 276 275 275 274 273 273 273 272 271 270 269 268 268 267 267 267 267 267 266 266 266 266 266 266 266 266 267 267 267 267 267 268 268 268 269 269 270 270 271 271 272 272 273 274 274 275 275 275 275 275 276 277 279 281 283 284 286 289 293 295 295 296 297 298 298 298 299 300 301 302 303 303 304 306 307 311 317 320 318
277 277 277 277 276 276 275 275 274 273 273 273 273 271 270 268 268 267 266 266 266 265 265 265 265 265 265 265 265 265 265 265 265 266 266 266 267 267 267 268 268 269 269 270 270 271 271 272 273 273 274 274 274 275 275 275 276 277 278 280 281 282 284 287 291 294 295 296 297 297 297 298 298 299 300 302 303 303 304 307 308 312 317 320 318
277 276 276 276 276 275 275 274 273 273 273 273 272 270 268 267 267 266 266 265 265 264 264 264 264 264 264 264 264 264 264 265 265 265 266 266 266 267 267 268 268 269 269 270 270 271 271 272 272 273 273 274 274 274 274 275 275 276 277 279 281 282 284 288 291 293 294 295 296 296 296 297 298 299 300 301 302 303 304 306 309 312 316 319 318
276 276 275 275 275 274 274 273 272 273 273 272 270 268 267 267 267 266 266 265 265 264 263 263 263 263 264 264 264 264 264 265 265 266 266 267 267 268 269 269 270 270 270 270 271 271 271 272 272 273 273 274 274 275 275 275 276 276 277 278 280 281 283 286 290 293 294 294 294 294 294 295 296 298 300 301 301 301 302 304 307 312 317 318 318
275 275 275 274 274 274 273 273 272 273 273 271 269 268 267 267 267 267 267 265 264 264 263 263 263 263 264 264 264 264 265 265 266 267 268 269 269 270 270 271 271 271 272 272 272 272 272 272 273 273 274 274 275 275 276 276 277 278 278 279 280 281 282 284 287 291 293 292 293 293 294 294 295 296 298 300 301 301 301 302 306 312 316 317 316
275 275 274 274 273 273 272 272 273 273 271 269 268 267 267 267 267 267 266 265 264 263 263 263 263 264 264 264 265 265 265 265 266 267 269 270 270 270 271 271 272 272 273 273 273 274 274 274 273 274 274 275 275 275 276 277 278 278 279 280 281 282 282 283 285 289 292 292 292 293 293 293 294 294 295 297 300 301 302 302 305 311 315 317 316
274 274 273 273 273 272 272 273 273 272 270 268 268 267 267 268 268 267 265 264 263 263 263 263 264 264 264 264 265 265 265 265 266 268 268 269 270 271 271 271 272 273 273 274 274 274 275 275 275 275 275 275 276 276 276 277 278 278 279 280 281 282 283 284 284 287 290 292 292 292 292 293 293 293 293 295 297 300 302 302 304 309 314 316 316
273 272 272 272 272 272 272 273 272 270 269 268 267 267 268 268 267 266 264 263 263 263 263 263 264 264 264 264 264 264 264 265 266 268 268 269 270 271 271 272 272 273 274 274 275 275 275 275 276 276 276 276 276 276 277 277 277 278 279 279 281 282 284 285 286 287 289 291 291 292 292 293 293 293 293 293 294 296 299 302 304 309 313 314 314
272 272 272 272 272 272 273 272 271 269 268 268 268 268 268 268 266 265 264 263 263 263 263 263 263 263 264 264 264 264 264 265 266 268 269 270 271 271 272 272 273 273 274 274 275 276 276 276 276 276 277 277 277 277 277 277 277 278 279 280 281 283 285 286 287 288 289 290 291 291 292 292 292 293 292 292 292 292 294 297 301 308 313 314 314
271 272 272 271 272 272 273 271 269 268 268 269 269 269 268 267 265 264 263 263 263 263 263 263 263 263 263 263 264 264 264 265 266 268 269 270 271 272 272 272 272 273 274 274 275 276 276 277 277 277 277 277 277 277 277 277 277 278 278 280 281 283 285 287 288 288 289 290 291 291 291 291 292 292 292 292 292 292 292 293 295 303 312 314 313
271 271 271 272 272 272 271 270 268 268 268 269 269 269 267 266 265 264 263 263 263 263 263 263 263 263 263 263 263 263 264 265 267 268 269 271 271 272 272 272 273 273 274 274 275 275 276 277 277 278 278 278 278 278 278 278 278 278 279 279 280 282 284 287 289 289 290 290 291 291 291 291 291 291 291 291 292 292 292 293 292 297 308 313 311
271 271 272 272 272 271 270 268 267 268 269 269 269 268 266 265 264 263 263 263 262 263 263 263 263 263 263 263 264 264 264 265 267 269 270 270 271 271 272 272 273 273 273 273 274 275 276 276 277 278 278 278 278 279 279 279 279 279 279 280 281 282 285 287 289 290 290 291 291 291 291 291 291 291 291 291 292 292 292 292 291 294 305 313 312
271 271 272 272 272 271 269 267 267 268 269 268 268 267 266 265 264 263 263 262 262 263 263 263 263 263 263 264 264 264 265 266 267 269 269 270 271 272 272 272 272 272 273 273 274 274 275 276 277 277 278 279 279 279 279 279 279 280 280 281 282 283 285 287 289 290 290 291 291 291 291 291 291 291 291 291 292 292 291 292 292 293 302 312 312
271 272 272 271 271 270 268 266 267 268 268 268 268 267 265 265 264 263 263 263 263 263 263 263 263 263 264 264 265 265 266 266 267 268 270 271 272 272 272 272 272 272 273 273 273 274 274 275 276 277 278 279 280 280 280 280 280 280 280 281 283 284 285 286 288 289 289 290 290 290 290 291 290 290 291 290 291 291 291 292 292 292 300 310 312
271 272 272 271 270 269 267 267 267 267 268 268 268 267 265 264 264 263 263 263 263 263 263 263 263 264 265 265 266 266 266 266 267 269 270 271 272 272 272 272 272 272 272 273 273 274 275 275 276 276 277 278 279 280 281 281 281 281 281 281 282 283 285 286 287 288 289 289 290 290 290 290 290 290 290 290 290 291 291 293 293 293 298 308 312
271 272 271 270 269 267 266 267 267 267 267 268 268 267 265 264 263 263 263 263 263 262 263 263 264 266 266 266 267 267 267 268 268 269 270 271 271 272 272 272 272 272 273 273 274 274 275 275 275 276 276 278 279 280 281 282 282 282 282 282 283 283 284 286 287 287 288 289 289 290 289 290 290 290 290 290 290 291 291 293 295 295 298 307 312
272 271 270 270 268 267 265 266 266 267 268 268 268 267 266 264 263 263 263 262 262 262 263 265 266 267 267 267 267 267 267 268 269 269 270 271 271 272 272 272 273 273 273 274 274 274 274 274 275 275 276 277 278 279 280 281 283 283 284 284 284 284 285 286 287 288 288 289 289 289 289 290 290 290 290 290 291 292 292 294 297 297 299 307 312
271 270 270 269 267 266 266 266 267 268 268 268 267 266 266 264 263 263 262 262 262 263 264 266 267 267 267 267 268 268 268 268 269 269 270 271 272 272 273 273 273 273 274 274 274 274 274 274 274 275 275 276 277 279 280 281 282 283 284 285 285 285 286 287 287 288 288 288 289 289 289 290 290 290 291 291 291 292 293 296 299 300 302 307 312
270 270 269 268 267 266 266 267 267 268 268 268 267 266 265 263 262 262 262 261 262 264 265 266 267 267 268 268 268 268 268 268 269 269 270 271 272 272 273 273 273 273 273 273 273 273 273 273 274 274 275 277 278 279 280 281 282 283 284 285 286 286 286 287 288 288 288 289 289 289 290 290 290 290 291 291 292 293 295 298 301 302 304 308 312
269 269 269 267 267 266 267 267 267 268 268 267 265 264 264 262 261 261 261 262 263 264 265 266 267 268 268 268 268 269 269 269 269 270 270 271 272 272 272 272 272 273 273 273 273 273 273 274 275 276 277 277 278 279 280 281 282 283 284 285 286 286 287 287 288 288 289 289 289 290 290 290 290 290 291 291 292 294 297 301 303 305 306 309 311
269 269 268 268 267 268 268 268 268 268 267 266 264 263 262 261 261 261 261 262 263 264 265 266 267 268 268 268 268 269 269 269 270 270 271 272 272 271 272 271 271 272 272 272 273 273 274 274 275 275 276 277 278 279 280 281 282 283 284 286 286 287 287 288 288 288 289 289 290 290 290 290 290 291 291 292 293 295 299 303 305 306 307 308 308
268 268 267 268 268 269 269 269 268 268 267 266 265 264 263 261 260 261 262 263 263 264 266 268 268 268 268 268 269 269 269 270 270 271 271 272 271 271 271 271 271 271 272 272 272 273 273 274 275 276 276 277 278 279 280 281 282 283 285 286 287 287 287 288 289 289 289 289 290 290 290 290 291 291 292 293 294 296 301 305 305 305 306 307 307
267 267 267 267 268 268 269 269 269 268 266 264 263 263 263 262 261 261 262 263 264 266 267 268 268 268 268 268 269 269 270 270 271 271 272 272 271 271 271 271 271 271 272 272 271 271 271 273 275 276 276 277 279 280 281 283 285 286 287 287 287 287 288 288 288 289 289 290 290 290 291 291 291 292 292 293 295 299 303 306 305 305 306 307 307
266 266 266 266 267 267 267 268 268 268 266 264 262 262 263 262 262 262 263 264 265 267 268 268 267 268 268 268 269 270 270 270 271 271 272 271 271 270 270 271 271 271 271 270 269 268 269 270 272 273 274 275 276 277 279 280 283 285 288 288 288 288 288 289 289 289 289 290 290 290 291 291 291 292 293 294 297 301 305 306 305 305 306 307 307
265 265 265 265 266 266 266 266 267 267 266 264 263 263 264 263 262 262 264 265 266 267 267 267 267 268 268 268 269 270 270 270 271 271 271 271 270 269 269 270 270 271 270 269 267 267 268 269 269 270 271 271 272 273 274 275 277 279 282 286 288 289 289 289 289 290 290 290 290 291 291 291 292 292 293 295 299 303 305 305 305 306 306 306 306
265 265 265 265 265 265 265 266 265 265 264 262 261 262 264 266 265 264 263 263 265 266 266 266 267 267 268 268 269 269 270 270 270 270 270 270 269 268 267 268 269 270 269 267 266 266 267 267 268 269 269 270 271 271 272 273 274 275 277 280 284 287 289 290 290 290 290 290 290 291 291 292 292 293 295 297 300 303 304 304 305 305 305 306 306
266 265 265 265 265 264 265 265 264 263 262 260 259 259 260 262 265 266 266 264 263 264 264 265 266 267 267 268 268 269 269 269 269 269 269 269 268 267 266 265 267 268 268 266 266 266 266 267 267 268 268 269 269 270 270 271 272 273 274 276 278 281 285 288 289 290 290 290 291 291 291 292 293 294 296 298 301 303 303 303 304 305 305 306 305
267 266 265 265 265 265 265 265 264 262 260 258 258 258 257 256 258 261 265 266 265 265 264 263 263 265 266 266 267 268 268 268 268 268 267 267 267 266 264 263 264 266 266 265 265 265 266 266 267 267 268 268 269 269 270 270 271 271 272 273 274 276 278 281 285 289 291 291 291 292 292 293 294 296 297 299 300 302 303 303 303 304 305 305 304
267 266 265 265 265 265 264 264 263 261 259 257 257 257 256 256 255 255 257 260 262 263 264 263 262 263 264 265 266 267 267 266 267 267 266 266 266 264 263 262 263 264 264 264 264 265 265 266 267 267 267 268 268 269 269 270 270 271 271 271 272 274 275 277 281 287 290 291 292 292 292 294 295 297 298 299 300 301 302 303 303 304 304 304 303
266 265 264 264 265 264 264 264 263 260 258 257 257 256 256 255 255 255 254 255 255 257 259 260 261 261 262 263 265 266 266 265 265 265 265 265 264 263 261 260 260 260 261 262 263 264 265 266 266 267 267 267 268 268 269 269 270 270 270 271 271 272 273 275 278 282 287 290 292 292 293 294 296 297 298 299 299 300 301 302 303 304 304 303 303
265 264 264 264 264 264 264 263 262 260 258 257 257 257 256 255 255 255 254 254 254 255 256 258 259 261 261 262 263 264 264 263 263 264 263 263 263 261 259 259 258 258 259 260 262 263 264 265 266 267 267 267 268 268 269 269 270 270 270 271 271 271 271 273 275 278 282 287 291 293 294 295 297 297 298 299 300 300 300 302 303 303 303 303 302
265 265 264 263 264 264 263 263 261 260 258 257 257 256 256 255 255 254 254 254 254 255 255 256 257 259 260 261 262 262 262 261 261 262 261 261 261 259 259 259 258 258 258 260 261 263 264 265 265 266 267 267 268 268 269 269 269 270 270 270 271 271 271 272 274 275 277 282 288 292 295 296 297 297 298 299 299 300 300 301 302 303 302 302 302
265 264 264 263 263 263 263 262 261 259 258 258 258 257 256 255 255 254 254 254 254 254 254 255 255 256 257 260 261 262 261 260 260 259 259 259 259 259 259 259 258 258 258 259 260 262 263 264 265 266 267 267 268 268 269 269 269 270 270 270 270 271 271 272 272 272 274 277 281 287 293 297 297 297 298 298 298 299 300 300 301 302 301 301 301
263 262 262 262 263 262 262 261 260 260 259 259 258 257 257 256 256 255 254 253 253 254 254 254 255 255 256 259 261 261 259 258 258 258 258 258 259 259 259 259 258 258 258 259 260 261 262 264 265 265 266 267 268 268 268 269 269 270 270 270 270 271 271 271 271 271 272 273 275 279 287 295 298 297 297 298 299 299 299 300 300 301 301 301 301
263 261 261 262 262 262 261 261 260 260 260 259 259 258 257 257 256 255 253 253 253 253 253 253 254 255 256 259 261 260 257 255 256 257 257 257 258 258 258 259 258 258 258 258 259 260 261 262 264 265 266 267 268 268 268 269 269 270 270 270 270 271 271 271 271 271 271 272 273 275 280 289 296 298 297 297 299 299 299 299 300 300 301 301 301
263 262 261 262 262 261 261 260 260 260 259 259 259 258 258 257 256 254 253 252 252 253 253 254 255 256 257 258 260 260 257 255 255 256 256 257 257 258 258 258 258 258 258 258 259 260 260 262 264 265 266 267 267 268 268 269 269 270 270 270 270 270 270 270 270 270 270 271 272 273 275 281 290 296 298 297 298 299 299 299 299 300 300 301 301
263 263 262 262 262 261 261 260 260 260 259 259 259 258 257 257 256 255 254 253 252 252 253 254 256 257 257 257 258 258 257 256 255 256 256 256 257 257 258 258 258 258 258 259 259 260 260 262 264 264 265 266 267 268 268 269 269 269 270 270 270 270 270 270 270 270 270 270 271 272 273 276 283 291 296 297 298 298 298 299 299 299 299 300 300
263 262 262 262 261 261 260 260 260 259 259 259 259 258 257 257 257 256 255 254 253 253 253 254 255 257 258 257 258 259 258 257 256 255 256 256 256 257 257 258 258 258 258 259 260 260 261 262 263 264 265 266 267 268 268 268 269 269 270 270 270 270 270 269 269 269 270 270 271 271 272 274 279 287 293 296 297 298 298 298 298 299 299 299 299
262 262 262 261 261 260 260 260 259 259 259 259 258 258 257 257 257 256 255 255 254 254 254 254 254 255 257 257 258 258 258 256 256 255 255 256 256 256 257 258 258 258 259 259 260 260 261 262 263 264 265 266 267 268 268 268 269 269 270 270 270 270 269 269 269 269 269 270 271 272 273 274 277 284 291 295 295 296 297 298 298 298 299 299 298
262 262 262 261 260 260 260 259 259 259 259 258 258 258 258 257 257 257 256 255 255 255 255 255 254 254 255 256 256 256 256 256 256 256 256 256 256 257 257 258 259 259 259 260 260 261 261 262 263 264 265 266 267 268 268 268 269 269 269 270 270 269 269 268 268 268 269 269 270 271 273 274 276 282 289 294 294 295 296 297 297 298 298 298 298
262 262 261 261 260 260 259 259 259 258 258 258 258 258 258 257 257 257 256 256 256 255 255 255 255 255 255 255 255 255 256 256 256 256 256 256 257 257 258 259 260 261 261 261 261 261 261 262 263 264 264 265 267 267 268 268 268 269 269 270 270 269 269 268 268 268 268 269 270 271 272 274 277 282 288 292 294 294 295 296 297 297 297 298 298
262 261 261 261 260 259 259 259 258 258 258 258 258 258 258 257 257 257 257 257 256 256 256 255 255 255 255 255 255 255 256 256 256 257 257 257 258 258 259 260 261 262 262 262 261 261 261 262 263 263 264 265 266 267 268 268 268 269 269 269 269 269 268 268 268 268 268 269 269 270 272 274 277 283 288 292 294 294 294 295 296 297 297 297 297
261 261 260 260 260 259 259 259 258 258 258 258 258 258 258 257 257 257 257 257 257 257 256 256 255 255 256 256 256 256 256 257 257 257 258 258 259 259 260 260 261 261 262 262 262 262 262 262 263 263 264 265 266 267 267 268 268 268 269 269 269 269 268 268 268 268 268 268 269 270 271 273 276 281 286 290 293 294 294 294 294 295 296 296 296
261 260 260 260 260 260 259 258 258 258 258 258 258 258 257 257 257 257 257 257 257 257 256 256 256 256 256 256 256 256 257 257 258 258 258 258 259 259 260 261 261 262 262 262 262 263 263 262 263 263 264 264 266 267 267 267 268 268 269 269 269 269 268 268 267 267 267 268 268 269 270 271 273 276 279 283 287 291 293 294 294 294 295 295 295
260 260 260 260 260 259 259 258 258 258 258 258 257 257 257 257 257 257 257 257 257 257 256 256 256 256 256 256 256 257 257 257 257 258 258 258 259 260 260 261 261 262 262 262 263 263 263 263 263 264 264 264 265 267 268 267 268 268 268 269 269 268 268 268 267 267 267 267 268 268 269 270 271 272 274 276 279 283 287 291 293 294 294 294 294
260 260 260 259 259 259 258 258 258 258 258 257 257 257 257 257 257 257 257 257 257 257 257 256 256 256 256 256 256 256 257 257 257 258 258 258 259 259 260 261 261 261 262 262 263 263 263 263 263 264 264 265 265 267 268 268 267 267 268 268 269 268 268 268 267 267 267 267 267 268 268 268 269 270 271 272 273 275 278 281 286 290 292 294 294
Wind_Speed
12 9 7 4 4 5 7 9 11 14 15 17 19 21 22 23 24 25 27 28 29 29 29 28 27 25 23 22 22 23 24 24 24 24 25 27 27 27 28 28 28 30 30 33 34 32 32 34 35 34 34 34 33 32 32 34 34 32 31 31 31 36 35 23 15 15 17 21 24 25 28 31 31 31 31 32 33 34 35 35 37 39 45 48 51
11 8 5 3 3 5 8 10 12 14 16 17 19 21 22 23 24 25 28 29 28 26 24 22 21 21 21 22 23 24 25 26 25 25 25 27 28 28 28 27 27 29 31 33 33 31 31 33 35 34 33 34 33 32 31 31 31 32 32 32 31 34 38 30 18 12 13 17 21 23 25 27 28 29 29 29 31 34 35 35 36 37 42 45 46
9 7 4 2 3 6 8 10 12 14 16 18 19 20 22 23 24 26 27 25 22 20 20 19 19 21 22 23 24 25 26 26 25 25 26 27 28 29 29 28 28 29 31 32 31 30 31 33 34 33 31 32 33 33 32 32 33 34 35 35 33 34 39 37 26 15 11 14 19 22 22 23 26 27 28 29 30 31 33 34 34 36 40 45 44
8 6 3 2 4 6 8 9 11 14 15 17 19 20 21 23 24 24 23 20 17 17 18 19 20 22 23 24 25 25 25 26 26 26 27 27 28 29 29 30 31 31 31 32 31 30 31 32 32 32 31 32 33 32 31 32 32 32 33 33 33 34 37 39 34 25 15 13 16 21 24 23 24 26 27 27 28 29 31 32 33 35 39 44 42
8 5 3 2 3 5 7 9 12 14 15 17 19 20 21 22 22 21 18 17 18 18 20 20 21 22 23 25 25 26 26 26 27 28 27 27 28 30 30 30 31 31 31 32 32 31 31 32 32 32 31 31 33 32 31 31 31 32 33 33 32 34 36 37 37 32 23 15 14 20 26 26 24 25 26 26 26 27 28 30 32 34 36 38 35
8 5 3 2 3 5 7 9 11 13 15 17 18 20 21 20 20 20 19 19 21 21 21 21 21 22 23 24 25 26 27 27 27 28 27 27 28 29 30 30 30 31 31 31 32 31 31 32 32 32 32 32 33 33 32 32 32 33 33 31 30 33 35 36 35 30 26 21 16 17 23 24 22 23 25 25 24 24 25 27 30 35 35 32 24
8 6 4 2 2 4 7 9 11 13 14 16 18 19 20 19 19 21 21 21 22 23 22 21 22 22 22 23 25 26 26 27 27 27 27 27 28 28 28 29 29 29 30 31 31 31 31 31 31 32 32 32 33 33 33 32 32 34 33 31 33 34 34 35 32 25 22 19 14 14 19 21 20 22 24 24 23 23 23 20 22 29 34 32 23
8 6 4 1 2 4 7 8 10 12 14 16 17 17 19 19 20 21 21 21 22 22 22 22 21 21 21 22 25 26 27 27 26 26 27 27 27 27 28 28 29 30 31 32 32 32 32 32 32 32 33 33 34 34 34 33 32 33 33 31 33 33 30 31 30 24 18 14 11 12 15 16 16 19 21 20 17 18 21 19 18 23 28 32 29
9 6 4 1 2 4 7 8 10 12 13 15 16 17 19 20 21 21 22 22 23 23 22 21 21 24 27 27 26 26 26 26 24 24 25 26 26 28 29 29 29 31 31 32 33 34 34 33 33 34 34 36 37 37 37 37 35 35 34 31 31 31 30 30 26 19 13 10 9 10 11 10 11 12 13 15 15 17 21 21 22 26 26 30 30
9 7 4 1 2 4 6 8 10 12 13 14 16 17 19 20 22 22 23 24 24 25 25 24 23 26 28 27 24 23 24 24 24 26 28 29 29 30 30 31 31 31 31 29 30 31 32 33 35 36 37 38 39 39 40 40 40 40 39 37 33 31 29 29 26 18 12 9 9 9 8 7 8 9 11 15 18 20 21 19 23 27 25 24 24
9 6 4 2 2 4 6 8 10 12 13 14 16 17 19 21 22 23 24 24 24 25 26 26 23 21 22 22 22 23 25 26 27 30 31 32 32 33 33 33 32 32 32 31 30 30 29 30 32 34 35 35 35 36 37 38 39 40 41 41 40 38 34 31 28 23 17 11 10 11 9 6 9 12 13 16 17 19 21 20 23 23 18 16 13
9 6 4 2 2 3 5 8 10 11 13 14 16 17 19 21 23 24 24 24 25 25 25 23 21 19 21 23 25 26 27 28 30 32 33 33 33 34 34 33 32 32 32 31 32 32 31 32 33 31 31 31 32 33 33 34 37 38 39 41 43 43 42 38 34 30 23 14 11 13 13 10 11 14 14 13 15 19 22 23 25 22 16 16 13
9 6 4 2 1 3 5 8 10 11 12 14 16 18 20 22 23 24 24 24 24 25 24 23 21 21 23 26 27 27 29 31 32 33 34 34 34 33 33 33 33 32 32 32 32 32 32 34 35 34 34 34 35 35 35 34 35 36 37 39 41 43 43 43 41 39 35 26 17 19 21 16 14 16 15 12 13 19 21 21 25 26 21 19 22
9 6 4 1 1 3 6 7 9 11 12 14 16 18 21 22 23 23 24 24 25 25 26 25 24 24 25 27 28 29 31 33 33 34 34 34 34 33 32 31 31 31 32 32 32 33 33 33 34 35 35 34 34 34 35 35 33 33 34 35 37 38 38 40 42 42 43 38 30 29 29 23 20 21 18 15 16 20 22 22 26 29 27 29 37
9 6 4 1 1 4 6 7 9 11 12 14 17 19 21 22 22 24 24 24 24 25 26 27 28 29 30 30 31 33 34 33 33 34 34 33 33 32 30 29 30 30 30 31 31 32 33 32 32 32 31 31 33 33 34 35 34 33 33 33 34 36 35 36 39 40 41 41 38 38 36 30 27 25 22 22 22 24 28 30 35 36 31 32 35
9 6 4 2 2 4 5 6 8 10 12 15 17 19 21 22 22 23 24 25 25 26 26 28 30 31 32 32 33 36 36 34 32 34 34 32 32 30 29 29 29 29 29 30 30 31 31 30 31 31 30 30 33 34 35 35 33 32 33 33 34 36 35 35 38 40 41 40 39 40 39 35 32 30 27 26 25 26 31 32 36 39 27 21 19
9 6 4 2 2 3 4 6 7 9 12 15 17 19 20 21 22 23 24 26 27 27 28 29 30 31 31 32 33 36 37 34 32 33 33 33 32 30 29 28 28 29 29 30 30 30 30 30 31 33 32 30 30 33 35 34 33 32 31 31 32 32 31 31 33 37 40 40 39 39 38 35 33 32 30 27 25 25 26 25 29 33 20 15 12
10 7 4 3 2 1 2 5 6 9 11 14 16 18 19 21 22 22 24 26 27 28 29 30 30 29 30 31 31 33 35 34 32 32 32 31 32 31 29 28 28 29 30 29 30 30 31 32 33 34 33 31 30 33 35 33 32 30 29 29 30 28 27 26 25 27 32 34 36 37 37 35 33 32 31 29 27 24 23 25 30 29 16 13 12
10 7 5 4 2 0 1 4 6 7 10 12 15 17 19 20 22 22 23 25 27 29 29 29 29 28 28 29 29 29 32 34 32 30 30 32 33 32 29 29 29 29 29 29 30 30 31 33 33 33 34 34 34 34 34 33 32 30 28 27 26 24 24 24 22 23 24 26 29 32 33 32 31 31 32 30 27 25 28 33 36 30 19 13 14
10 8 6 5 3 1 1 3 5 6 8 11 13 16 18 19 21 22 23 25 27 28 29 28 28 27 26 26 27 28 31 33 31 29 30 33 34 32 29 28 28 28 28 29 30 31 32 32 32 32 33 34 35 34 33 32 33 32 29 27 26 24 24 24 24 24 24 23 25 28 28 28 28 30 31 29 28 30 33 36 38 36 31 20 19
10 9 7 6 4 2 2 3 4 5 7 9 12 14 17 18 20 21 23 25 27 28 28 25 25 25 24 24 27 28 29 30 30 30 31 33 33 33 30 28 28 29 29 30 31 32 32 32 32 33 33 33 34 34 34 32 32 32 32 31 31 30 28 26 26 27 26 24 25 27 27 26 26 28 29 28 30 33 35 38 40 41 40 30 26
12 10 9 7 5 4 3 3 3 4 6 8 11 13 16 17 18 20 22 25 26 26 26 25 24 23 22 23 27 27 28 29 30 30 31 32 33 34 33 32 33 32 30 29 30 32 33 33 33 33 34 34 34 34 35 34 32 32 33 35 37 36 35 32 29 28 26 25 25 25 25 24 24 26 27 28 32 34 34 38 42 44 45 41 42
13 12 10 8 6 5 4 3 3 4 6 8 10 13 16 17 19 20 21 24 25 24 24 26 24 20 21 24 24 24 28 30 28 29 33 34 35 35 35 34 34 32 30 29 30 33 34 33 34 35 37 37 35 35 35 35 33 31 32 34 36 37 37 35 31 29 27 26 24 23 22 22 22 24 25 28 32 33 34 39 43 44 46 45 53
15 13 11 9 7 5 4 2 3 5 7 8 10 13 15 17 19 20 20 23 23 21 22 25 22 19 24 27 24 24 29 27 24 29 35 36 35 35 34 34 34 33 31 30 31 33 34 33 35 37 39 39 38 38 37 36 35 34 33 33 34 33 33 32 30 28 26 24 22 21 21 22 22 24 27 30 32 33 35 40 43 45 46 48 54
15 14 12 9 7 6 4 3 3 5 7 9 11 12 15 17 19 20 20 20 19 19 22 25 21 19 24 26 25 29 31 25 23 32 38 34 32 35 35 33 33 33 32 31 31 34 36 37 37 39 40 39 37 36 33 32 33 32 32 32 31 31 30 29 28 26 24 22 21 21 21 23 25 28 30 31 31 32 34 38 42 44 46 47 47
17 15 12 10 8 6 4 3 4 6 7 9 10 11 13 15 17 18 18 18 19 22 25 24 20 20 23 24 25 30 30 24 25 34 38 33 33 36 35 32 32 32 31 30 32 34 36 36 36 35 35 33 31 29 28 30 31 32 32 31 29 28 27 27 26 24 22 21 20 20 22 24 26 26 27 28 30 32 34 35 35 36 37 37 34
17 15 13 10 8 6 4 3 6 7 8 9 10 10 11 12 14 16 17 19 22 24 24 22 19 20 22 23 25 28 28 26 29 35 38 35 35 36 33 30 30 30 29 28 30 31 31 32 31 31 31 31 30 30 30 32 33 32 30 27 25 25 25 26 26 24 22 21 20 21 23 23 23 23 24 26 29 32 34 35 31 29 34 36 30
18 15 13 11 8 7 5 5 6 7 9 11 11 10 10 12 14 15 16 19 22 23 23 21 20 21 23 25 27 26 25 28 34 38 38 37 37 35 31 28 28 28 28 30 31 29 28 26 22 20 22 22 22 23 23 25 27 26 23 20 19 22 25 26 27 26 24 23 22 21 21 21 21 23 24 24 28 31 33 36 32 30 34 35 24
18 15 13 11 9 8 6 6 7 7 9 12 12 10 9 10 13 15 16 17 19 21 22 21 21 23 24 25 26 24 24 29 35 38 38 37 38 36 31 29 29 28 29 32 30 25 23 23 20 17 16 15 15 15 17 19 19 17 17 18 19 20 21 23 23 23 23 22 21 20 20 21 23 24 23 23 27 30 33 35 32 31 33 29 20
18 15 13 12 10 9 8 8 7 6 7 11 14 13 9 6 7 11 15 17 17 18 19 19 21 23 23 23 25 24 26 31 35 36 36 36 38 37 33 31 31 31 32 31 26 21 20 19 18 18 18 16 15 15 17 19 20 18 16 14 16 19 20 20 20 21 21 21 21 22 22 22 22 21 20 22 24 27 33 34 33 31 29 22 15
19 16 14 12 11 10 9 9 8 5 5 8 12 15 14 10 7 6 11 16 18 18 18 19 20 22 22 24 25 26 28 31 33 35 36 36 37 38 36 32 31 31 32 28 21 19 20 18 16 17 18 15 15 16 17 18 17 17 19 18 15 15 17 19 21 22 22 22 23 24 24 23 21 19 20 21 21 23 28 30 29 30 29 23 16
19 17 15 13 12 11 10 10 8 5 4 5 8 11 14 16 14 12 13 16 16 17 19 21 22 22 23 24 26 27 29 31 32 34 35 35 36 37 37 35 31 31 33 30 23 19 19 16 15 17 18 16 16 17 17 18 18 18 17 17 18 18 15 16 20 24 24 23 23 23 23 22 20 20 21 21 18 18 23 23 23 26 26 23 21
19 18 16 14 13 12 11 10 7 4 2 4 6 7 9 12 15 16 17 18 17 15 17 21 23 23 24 25 26 28 30 30 32 33 34 34 35 36 37 36 33 31 31 28 22 20 18 15 15 17 17 16 17 18 18 18 18 19 18 17 18 20 21 22 21 20 24 25 24 23 22 21 20 20 20 19 16 15 18 20 21 22 20 17 16
19 17 16 15 14 13 12 10 7 4 2 3 4 5 6 7 9 13 16 18 18 18 20 24 24 24 24 26 27 29 30 30 31 33 34 35 35 35 40 44 45 43 37 27 20 20 20 17 16 17 18 17 17 18 19 19 19 19 19 19 19 21 23 23 21 18 19 22 23 22 21 20 19 18 17 16 14 12 14 19 20 16 13 12 12
20 18 16 14 14 13 12 10 7 4 2 2 3 4 6 7 8 9 12 14 17 19 22 25 26 24 24 25 27 29 31 30 30 32 34 35 35 37 43 47 46 42 38 30 24 22 21 19 17 18 19 20 20 19 18 19 19 19 20 20 20 22 22 20 18 18 18 19 20 19 18 18 19 19 17 15 13 10 10 15 20 17 13 13 14
20 19 17 15 14 14 12 10 7 5 2 2 3 4 5 6 8 9 11 12 14 16 21 25 27 26 26 28 28 30 31 30 29 30 32 34 36 38 39 37 34 31 30 29 27 23 22 22 21 20 20 22 23 22 20 19 19 19 19 20 20 20 20 19 19 20 20 19 18 17 16 16 18 19 19 15 14 14 12 14 19 21 19 18 19
20 19 18 16 15 14 12 10 7 5 3 1 2 4 5 6 7 9 11 13 14 15 18 22 24 25 29 32 30 29 31 31 28 29 32 33 35 36 32 31 34 34 31 29 28 25 23 25 26 24 24 24 25 24 22 21 20 20 20 20 19 18 19 20 20 20 20 19 19 16 14 17 18 20 20 15 13 15 16 16 17 20 23 24 22
19 19 18 16 15 14 12 10 8 6 3 2 3 4 5 7 8 10 11 12 14 15 18 20 21 21 24 29 29 29 32 33 32 33 35 34 33 33 31 32 38 41 37 34 32 27 24 26 29 29 28 29 28 27 25 24 23 22 22 23 22 21 22 22 21 20 19 19 21 19 12 16 19 20 21 18 15 15 16 17 15 15 18 22 20
20 18 17 16 15 14 11 9 8 6 4 4 4 5 6 8 10 11 12 14 15 16 17 20 20 20 22 26 28 29 31 32 30 31 33 33 32 32 32 32 36 42 42 39 37 33 28 28 31 33 31 30 30 30 28 28 28 26 25 24 23 22 22 22 21 21 20 19 22 24 17 13 19 21 20 19 18 17 17 18 17 15 14 16 19
21 19 17 16 15 13 11 9 7 6 5 4 4 5 6 8 9 11 12 13 15 16 17 18 20 22 23 24 25 26 27 27 26 27 29 30 31 33 33 31 33 39 42 40 40 40 34 30 33 36 33 31 32 33 32 32 32 29 26 24 22 22 22 21 20 21 21 20 20 23 22 15 15 21 21 19 19 20 19 18 19 20 19 20 24
22 21 18 16 14 12 10 8 7 5 4 4 4 5 6 7 8 9 11 12 13 15 16 17 19 21 22 22 22 23 24 24 25 26 27 28 30 31 32 31 31 36 39 39 40 42 39 35 35 38 35 33 34 36 35 35 33 30 27 25 24 24 24 23 23 22 24 23 21 22 25 22 14 15 19 20 20 21 21 20 20 21 21 22 24
22 20 19 17 14 11 10 8 7 5 4 3 4 5 5 7 8 9 10 12 13 15 17 19 20 21 22 21 21 23 26 26 26 27 28 29 30 31 32 33 32 33 36 37 38 40 39 37 37 39 37 35 35 36 36 36 36 34 31 28 26 25 25 26 26 25 26 27 25 25 27 26 20 13 16 21 21 20 20 21 21 21 20 18 19
22 20 18 17 14 11 10 8 6 5 4 3 4 5 5 6 8 9 10 11 13 14 17 19 21 21 22 22 22 24 27 28 28 28 28 30 32 32 34 36 35 34 36 38 39 39 37 36 38 39 37 35 36 37 36 36 36 36 35 32 30 28 27 28 28 29 30 31 30 28 28 26 22 16 12 17 20 20 20 21 20 21 20 18 18
22 21 19 17 14 11 10 8 6 6 5 4 3 4 5 5 7 9 10 11 13 14 16 18 19 21 22 23 24 26 28 28 28 28 29 30 32 34 35 37 38 37 37 39 40 39 38 38 39 41 40 38 39 39 38 38 37 36 35 35 34 32 31 31 32 32 33 32 30 27 25 24 21 16 11 14 17 17 18 20 20 19 19 19 18
23 21 19 17 14 12 10 9 7 6 5 4 3 3 4 5 6 8 10 11 13 14 15 17 18 19 21 23 24 25 26 27 27 28 29 30 32 34 36 38 39 40 39 39 40 40 40 40 40 41 42 41 42 42 42 41 39 38 36 35 34 34 35 35 36 36 34 33 30 27 25 22 20 16 11 13 17 16 16 19 21 20 19 19 18
22 20 18 17 15 13 11 9 8 7 5 4 3 3 4 5 6 8 9 11 12 14 15 17 18 18 19 21 23 24 25 26 27 28 29 31 32 34 36 38 40 41 41 41 40 41 41 41 40 41 41 40 41 43 45 44 42 41 40 38 37 37 38 37 38 37 36 33 30 27 26 22 18 17 14 12 16 16 15 18 21 21 20 21 21
22 20 18 16 15 13 11 10 9 7 6 5 4 3 4 4 5 7 8 10 12 13 14 16 17 18 19 20 21 23 24 25 26 27 29 30 32 33 35 38 39 41 42 41 42 42 42 41 41 41 41 40 40 43 47 47 45 44 43 42 42 43 43 41 40 39 36 34 31 29 26 21 15 14 14 13 15 16 14 15 18 21 22 22 21
21 20 18 16 14 13 11 10 9 8 7 6 5 4 4 4 5 6 8 9 11 12 14 15 16 18 19 19 21 22 23 24 25 26 28 29 31 32 34 36 38 40 41 41 42 43 43 42 42 42 42 41 40 42 46 48 47 46 47 46 47 48 46 44 43 42 38 36 35 32 28 24 18 12 8 7 11 16 16 14 15 18 21 21 22
21 19 17 16 14 12 11 10 9 8 7 6 5 4 4 4 4 6 7 9 10 11 13 14 15 17 18 19 20 21 22 24 25 26 27 28 29 30 32 34 36 39 40 40 42 44 43 43 43 43 44 43 40 39 44 48 49 48 49 50 50 49 49 47 47 46 43 39 37 36 33 30 26 23 18 11 2 8 14 17 17 17 18 18 19
21 18 17 15 14 12 11 10 9 8 7 6 5 4 4 3 4 5 6 8 9 10 12 13 15 16 17 18 20 21 22 23 24 25 26 27 28 29 31 33 35 37 38 39 41 43 43 43 43 44 45 45 41 37 40 47 49 49 50 51 51 51 50 49 49 50 47 42 38 38 37 34 31 30 28 24 18 10 3 8 15 19 19 17 17
21 18 17 15 14 13 11 10 9 8 7 6 5 4 3 3 3 4 6 7 8 10 11 12 14 15 16 17 19 19 20 22 22 23 24 25 26 27 29 31 33 35 37 38 40 42 42 43 43 44 45 47 44 37 37 43 49 51 51 51 51 52 51 50 49 50 49 45 41 39 38 36 34 33 32 30 27 23 17 10 5 10 15 17 19
Wind_Direction
192 195 200 217 266 297 309 315 318 319 321 321 320 322 323 323 322 319 314 313 313 309 305 305 303 298 294 293 292 291 290 288 284 279 275 274 272 271 271 268 264 265 268 268 268 269 267 265 264 264 265 269 270 273 276 275 273 272 272 272 271 274 274 265 257 264 260 257 263 267 271 275 275 274 274 273 273 272 268 270 269 251 230 219 218
191 195 201 223 282 307 313 316 319 320 322 323 324 325 326 325 323 317 313 314 314 310 305 303 302 298 296 295 294 292 290 288 285 280 276 276 276 275 272 268 266 268 269 267 267 269 268 265 264 265 265 266 267 271 275 276 277 277 277 276 273 273 274 268 257 261 265 260 263 267 269 269 270 268 268 268 271 271 267 267 271 260 237 224 217
190 192 201 243 298 312 314 317 320 324 327 325 325 327 327 325 322 317 315 313 309 307 305 302 300 300 298 296 295 292 290 288 284 281 279 278 278 277 273 269 269 270 270 269 269 269 268 266 265 265 265 267 267 269 271 272 274 276 274 271 271 272 274 271 263 257 263 265 265 269 270 268 267 267 267 266 268 270 267 265 272 264 240 226 221
186 189 201 264 304 310 315 322 326 328 329 326 327 329 327 324 321 318 315 309 303 304 306 304 301 301 299 297 294 291 289 289 286 283 281 279 278 278 275 272 272 271 270 270 271 270 268 267 267 266 265 267 268 267 269 270 271 272 271 269 269 270 272 272 266 257 258 265 265 269 273 271 270 270 270 269 269 269 267 266 270 265 241 223 221
182 188 201 256 298 313 322 330 333 332 329 328 330 330 327 323 320 317 312 307 306 307 308 306 304 301 299 297 294 291 291 291 287 286 285 281 278 278 276 275 275 274 271 269 270 270 268 268 269 268 266 266 267 268 270 270 271 272 270 268 268 269 271 271 264 257 256 260 263 269 272 273 274 274 272 272 271 270 268 265 268 265 241 218 218
180 184 200 246 297 324 335 338 337 333 330 332 332 330 326 323 319 317 314 311 312 312 309 306 303 299 296 295 294 293 293 293 289 288 287 283 280 279 277 276 275 273 271 270 270 270 269 269 268 267 266 266 266 268 270 270 271 271 270 270 273 275 277 275 264 254 253 257 261 267 269 270 274 275 273 270 268 269 271 270 270 262 235 206 204
178 182 198 236 314 340 343 342 338 334 333 334 333 328 325 322 318 318 319 317 317 316 311 306 302 298 294 294 297 297 295 294 291 289 288 284 282 280 279 277 276 274 272 271 270 269 268 268 268 267 266 265 265 267 270 271 270 271 271 273 274 273 273 274 268 257 253 257 257 259 266 269 268 268 270 270 267 264 264 270 273 255 221 191 182
176 180 190 213 346 348 347 344 338 336 337 335 332 327 324 323 322 323 324 324 323 319 312 305 299 297 296 295 299 300 298 294 291 290 288 285 283 282 279 277 274 272 269 266 265 265 264 263 264 265 265 265 264 265 268 267 267 270 270 271 273 271 269 270 267 256 252 257 255 257 266 272 268 264 263 262 262 261 256 257 267 247 207 178 176
176 180 178 143 3 353 350 344 340 340 339 336 331 327 327 329 330 330 331 331 328 322 313 305 301 304 308 305 301 300 298 294 291 290 289 287 285 282 280 277 273 270 266 261 258 258 258 258 258 261 264 265 264 265 266 264 263 266 268 269 273 276 277 276 267 251 245 252 254 258 265 272 275 274 264 249 246 255 255 257 265 247 202 170 172
175 174 162 122 7 0 352 344 344 343 340 335 331 330 333 335 336 336 337 336 331 324 318 314 310 309 310 308 303 300 299 295 294 294 293 292 291 287 285 283 279 276 274 268 261 256 254 254 253 258 264 267 267 267 267 265 263 263 265 266 267 268 273 276 274 266 255 253 258 258 256 260 264 270 278 271 261 258 256 259 263 246 205 168 168
172 166 153 123 16 3 350 344 348 345 339 335 333 335 338 338 340 341 340 336 331 327 323 319 315 308 305 306 305 303 302 299 299 299 298 297 295 292 290 287 284 281 279 275 272 267 262 259 257 257 261 264 265 267 266 265 265 265 265 265 263 261 261 264 270 271 263 252 255 257 254 255 257 261 275 287 284 271 258 255 259 247 208 169 167
165 159 151 123 27 358 347 348 349 342 338 337 337 339 341 342 343 343 339 335 332 328 325 320 314 311 308 307 306 304 303 301 302 303 302 300 298 294 291 289 287 284 280 276 273 270 268 269 267 262 261 262 264 267 267 268 268 267 267 267 265 262 258 254 256 260 260 257 255 256 255 253 256 260 263 278 294 286 269 260 259 248 210 175 163
160 156 151 122 30 355 351 352 346 339 339 341 340 342 343 345 345 342 337 335 332 328 324 320 315 312 310 307 306 305 303 303 305 306 304 302 300 297 293 290 287 285 282 278 274 270 268 269 268 265 265 264 263 263 266 268 268 268 269 270 268 265 259 253 249 250 254 256 256 256 256 254 254 258 259 267 289 293 286 276 264 249 221 181 163
160 157 145 126 18 358 356 350 342 338 342 343 342 343 345 346 345 342 338 335 331 327 324 321 318 313 309 306 304 304 303 303 306 308 307 305 302 299 296 292 290 288 286 283 279 274 269 266 264 264 265 263 260 260 262 262 264 267 269 269 268 266 260 253 248 248 250 251 252 254 255 255 255 259 267 271 275 284 285 282 277 260 222 183 166
160 157 148 138 12 3 356 345 339 341 345 346 343 344 346 346 344 343 338 333 329 326 323 321 317 313 311 309 306 305 305 305 308 310 309 307 306 303 300 298 294 291 289 288 284 280 275 269 265 264 261 259 259 261 261 261 262 263 266 269 271 271 265 253 246 246 246 246 246 249 252 253 256 261 269 272 270 276 276 277 286 274 229 185 165
159 157 152 130 27 5 349 339 339 344 348 347 344 344 346 346 345 343 337 332 328 326 323 319 314 311 311 311 307 306 307 309 310 312 312 312 311 308 303 298 295 292 293 293 291 288 285 279 275 273 267 261 262 263 263 264 263 260 262 266 270 272 269 259 249 245 245 244 243 246 249 251 255 260 265 268 270 277 280 281 288 281 245 186 160
162 157 146 114 40 3 336 334 341 348 350 347 343 344 346 345 344 342 335 330 327 324 320 316 312 310 310 311 309 307 309 312 312 313 315 315 314 310 305 301 299 298 298 296 294 292 289 284 281 280 274 265 261 262 263 264 262 260 261 264 266 268 268 263 253 245 244 245 243 245 248 250 255 260 261 265 267 271 279 281 281 281 257 183 167
161 152 136 119 76 7 328 334 346 351 350 344 342 344 345 343 343 340 333 326 322 321 317 311 309 309 309 310 310 306 307 311 312 313 316 317 315 312 309 306 303 300 298 296 294 292 290 288 286 284 281 275 268 264 263 263 261 259 259 260 260 263 263 261 257 249 247 247 246 247 250 250 254 259 259 263 266 265 267 265 267 275 260 186 171
157 146 135 134 133 121 335 345 352 351 345 340 340 343 344 342 340 337 331 325 319 317 314 308 306 309 310 312 313 308 307 311 313 314 318 320 318 315 311 306 303 301 299 298 296 292 290 290 288 285 284 283 280 273 265 260 257 255 257 259 258 259 260 259 258 254 250 249 246 247 250 250 252 258 260 263 268 265 262 261 261 264 255 206 168
151 144 141 142 147 130 31 8 355 348 340 336 336 342 345 343 339 335 330 324 319 314 311 306 306 310 314 316 318 315 313 314 316 318 321 323 322 319 314 308 304 301 299 297 295 292 290 290 289 287 285 285 286 285 277 265 256 251 251 255 256 258 262 262 258 256 253 250 249 249 251 252 253 258 262 265 268 268 266 263 259 254 248 222 173
146 144 144 144 140 114 64 30 0 347 341 337 335 341 346 343 337 333 327 322 317 312 309 309 311 316 322 323 323 322 320 319 321 323 324 325 323 320 314 307 302 299 297 294 292 292 291 290 288 286 285 285 285 287 286 278 264 252 246 249 252 256 260 261 258 257 253 250 252 253 254 255 255 258 263 267 268 269 269 265 257 251 246 223 180
144 145 145 140 131 110 83 47 11 354 346 341 337 339 344 342 336 331 325 319 314 310 312 317 317 316 321 324 324 325 326 326 327 327 326 326 325 321 315 309 305 301 296 293 292 291 291 290 288 286 285 286 284 285 287 284 275 260 250 250 252 252 253 254 254 254 252 251 253 254 253 252 254 258 262 264 267 267 266 264 254 247 245 224 188
145 145 142 136 130 117 94 63 22 6 356 349 342 338 339 338 334 330 324 318 313 310 314 318 315 312 321 326 324 325 328 329 330 332 330 328 326 323 318 314 310 306 300 296 295 293 291 288 287 286 285 285 283 282 282 283 281 272 258 253 252 250 249 249 249 250 251 252 251 250 248 248 250 256 258 259 264 264 260 258 248 239 241 227 194
145 143 140 136 134 126 108 83 35 19 10 358 347 341 338 335 331 328 326 320 314 309 312 315 313 317 328 329 328 330 332 328 327 332 333 329 328 327 323 319 316 312 305 300 296 294 291 287 285 284 283 282 282 282 282 281 280 276 267 258 253 251 250 248 246 247 248 248 246 243 243 244 244 250 255 255 261 263 256 249 239 231 233 223 199
144 142 141 139 139 134 122 100 48 29 19 6 354 344 337 332 328 327 327 322 312 307 311 316 319 324 329 331 332 333 334 331 328 332 333 331 331 332 329 325 322 317 310 304 299 295 291 288 285 283 282 282 282 282 281 278 275 272 269 262 252 247 247 245 244 245 244 242 242 239 240 244 245 249 256 259 262 264 253 238 229 226 227 216 197
144 143 144 145 145 140 130 101 57 38 22 9 359 346 335 329 325 324 325 321 315 312 314 319 327 328 328 332 333 331 332 333 332 333 336 336 337 336 334 331 328 323 317 310 305 300 295 290 285 281 281 281 280 279 277 274 273 271 268 263 251 242 243 242 240 241 242 240 241 239 241 248 251 255 262 264 264 260 245 226 217 217 214 200 182
144 145 146 147 146 139 127 84 54 38 21 9 1 350 341 333 326 322 322 320 317 316 318 324 331 329 327 329 331 330 334 338 338 339 342 343 341 339 337 335 331 328 325 322 316 310 304 296 285 276 275 277 277 276 274 272 272 268 263 257 244 236 240 244 241 240 242 242 244 246 248 253 257 261 262 260 261 255 235 214 204 203 195 184 171
145 144 143 143 138 130 118 78 55 35 13 5 360 352 348 345 335 326 323 322 318 319 326 331 331 330 329 330 329 330 337 344 343 343 344 345 344 342 339 337 335 334 336 336 332 326 324 323 311 291 284 283 281 281 281 277 272 262 249 240 235 235 239 243 242 242 243 244 246 251 254 256 258 259 258 257 258 248 222 203 197 193 185 178 171
144 141 141 140 130 123 114 85 65 40 6 357 355 351 348 346 335 324 324 328 327 329 335 336 334 333 334 334 334 335 341 345 344 345 346 347 347 347 344 341 340 342 346 346 343 336 337 346 351 342 332 329 325 322 321 318 307 286 255 235 232 234 235 237 238 239 240 243 247 250 252 255 256 255 255 257 253 234 208 195 193 188 180 177 171
142 139 139 136 127 122 113 93 78 53 10 353 351 353 357 355 337 324 325 332 336 340 342 341 339 340 342 343 343 344 344 344 344 346 348 349 352 354 352 346 346 351 354 351 349 348 349 351 354 351 347 345 344 342 338 335 333 326 309 277 247 234 231 233 238 240 240 241 244 247 248 249 251 252 250 251 244 219 197 191 187 181 178 177 171
142 139 138 133 126 122 111 98 89 67 22 354 350 353 356 1 14 7 349 345 346 348 349 348 347 349 350 349 348 349 349 348 348 351 352 353 356 358 356 352 351 356 358 354 353 357 357 353 349 348 348 345 344 342 337 331 329 329 328 323 303 268 243 233 234 238 240 241 240 243 244 242 244 248 244 242 233 204 188 186 183 178 177 176 170
143 140 140 134 126 121 111 102 98 81 32 1 356 358 355 351 354 6 15 12 3 351 349 351 353 356 357 355 353 354 354 353 354 355 356 357 360 1 1 358 356 356 359 3 5 359 352 348 346 347 347 345 341 338 336 333 330 326 325 325 322 313 295 270 251 239 235 236 237 238 240 239 241 243 237 234 226 197 179 178 180 178 175 173 169
146 142 140 135 128 123 114 105 101 92 39 2 360 3 357 344 334 336 353 10 16 11 6 3 359 356 358 360 359 359 359 358 358 359 360 1 2 2 2 4 3 1 2 6 4 352 342 340 345 346 344 340 338 336 336 334 330 328 325 318 313 312 310 306 292 262 241 237 237 239 241 239 237 236 228 223 220 200 177 172 176 177 173 169 168
144 141 139 136 130 123 116 112 111 109 66 8 357 351 344 332 318 316 326 341 353 0 8 13 11 3 357 359 1 2 1 1 1 1 2 3 3 2 4 9 12 11 8 3 354 346 340 335 337 341 340 337 335 336 335 333 330 328 325 318 312 308 306 306 305 290 266 251 244 243 243 236 230 226 218 212 212 205 185 175 174 175 170 164 163
142 139 137 135 130 122 118 119 123 124 92 17 355 342 337 333 326 321 320 321 323 327 339 357 9 9 1 359 1 3 3 3 2 3 4 4 4 5 8 10 10 5 360 353 345 342 340 333 330 334 336 335 334 332 327 326 328 326 322 319 316 312 308 305 306 305 296 277 260 250 240 229 221 215 208 204 202 201 196 184 175 170 168 165 163
144 140 135 134 129 122 120 124 127 123 98 21 349 345 349 342 337 338 336 329 324 323 331 347 2 10 12 12 8 2 2 3 2 2 3 5 7 9 10 8 1 353 347 344 339 337 338 338 335 334 335 335 334 331 325 320 320 320 318 318 316 310 308 309 311 313 311 301 285 266 237 219 212 207 202 202 198 195 200 194 179 169 166 167 165
145 141 136 133 128 122 122 127 127 122 108 50 9 1 0 354 351 353 349 341 338 336 338 349 359 6 12 15 11 2 1 4 5 4 5 6 9 10 8 4 1 355 348 343 339 335 335 339 339 337 338 339 336 332 327 323 320 319 318 319 318 314 315 316 316 317 317 316 310 290 241 211 204 202 198 197 196 195 197 197 186 172 167 166 166
144 140 135 132 128 124 125 130 128 125 119 78 39 22 14 8 5 3 358 351 349 345 345 353 359 357 358 5 5 360 2 8 10 7 5 5 6 7 5 2 2 359 352 348 345 339 333 337 340 339 341 344 342 337 334 332 331 329 327 324 323 325 329 329 327 326 326 328 328 316 269 214 200 199 197 195 193 191 192 193 189 176 167 166 166
140 136 134 132 129 126 129 134 130 124 114 80 50 33 24 19 14 10 3 357 356 354 351 355 359 356 355 0 1 358 2 8 6 1 359 359 0 3 3 0 359 359 356 353 350 345 336 334 339 342 343 345 346 344 341 340 340 339 336 331 328 331 335 336 334 333 330 328 329 327 308 242 206 198 196 197 194 188 187 188 185 178 171 168 169
142 139 137 135 131 129 132 133 127 120 108 83 61 44 32 24 17 13 8 1 356 356 355 355 357 359 1 2 360 360 3 5 0 355 355 355 356 359 1 358 355 356 356 353 351 348 341 335 338 342 344 346 349 348 346 345 345 343 342 339 335 333 334 334 333 332 331 325 323 326 323 294 229 202 195 197 196 189 185 184 182 180 180 178 175
144 142 139 136 132 132 133 131 125 117 106 87 67 49 37 31 24 17 13 7 360 357 358 359 0 5 7 2 359 3 8 6 360 357 357 355 354 357 358 356 354 354 355 353 351 349 345 341 342 344 345 347 350 350 349 349 349 348 345 343 341 339 338 335 332 330 330 328 323 322 324 318 282 223 201 196 196 192 186 183 182 183 185 184 180
146 144 139 136 135 136 137 135 130 122 112 95 76 57 40 34 31 26 20 15 8 3 2 3 5 11 13 6 1 6 12 10 5 0 358 356 356 356 356 356 354 352 352 353 352 350 348 346 346 347 348 349 352 353 352 352 351 350 349 347 345 344 342 338 333 331 330 330 327 323 322 321 310 270 220 199 194 191 187 184 184 183 184 184 180
147 143 139 137 138 141 141 140 138 133 122 102 82 67 48 38 36 32 26 22 16 11 8 6 6 10 13 11 10 12 14 11 6 2 359 357 357 356 356 356 354 352 353 355 356 354 353 351 350 350 351 352 355 356 356 355 353 352 352 351 349 348 345 340 336 334 332 330 328 324 319 317 313 297 247 208 197 193 189 186 185 183 182 179 176
146 142 140 140 140 143 144 143 144 140 125 107 96 75 53 44 40 35 30 26 22 18 14 10 7 6 8 10 12 13 11 7 4 1 359 357 356 356 357 357 355 354 355 357 357 357 357 355 353 354 354 356 358 360 0 360 359 357 355 354 352 351 349 344 340 337 335 331 328 323 317 311 307 299 262 214 200 195 191 187 185 181 178 177 175
146 143 142 143 143 145 147 145 144 142 129 114 110 90 62 49 42 36 32 28 23 20 18 14 10 7 5 7 9 9 7 5 3 1 359 358 357 356 357 358 358 358 358 358 357 359 360 359 357 356 356 357 360 1 2 2 2 1 360 359 357 354 352 348 345 345 345 339 331 324 318 309 300 291 267 217 198 197 194 189 186 182 178 176 177
145 143 145 147 147 148 151 150 146 145 143 139 130 104 76 58 44 37 34 29 24 21 18 14 12 8 6 6 7 7 6 5 3 2 0 360 359 359 0 1 1 1 2 1 360 0 2 1 359 357 357 357 0 3 4 3 3 3 3 3 2 360 357 354 353 355 355 350 343 334 324 313 296 284 272 232 199 196 198 192 187 184 182 181 181
145 144 146 149 150 150 153 154 152 152 152 149 138 116 89 68 51 41 35 30 25 21 18 14 11 8 6 7 7 6 6 5 4 2 2 2 2 2 4 5 4 4 4 4 3 3 3 2 0 359 358 359 2 5 5 4 3 3 4 4 4 3 2 1 3 3 1 360 359 354 343 332 317 294 275 240 203 194 196 194 189 187 186 184 183
146 146 146 149 152 153 156 158 157 157 156 152 140 125 101 74 57 47 39 33 27 21 16 13 9 6 6 7 7 6 6 6 5 5 5 6 6 6 7 8 7 6 5 5 5 6 5 4 2 1 0 360 3 7 8 6 5 4 4 5 5 4 5 7 9 9 8 8 9 8 4 2 4 358 325 260 209 194 191 189 188 189 189 188 186
146 148 148 149 152 155 159 162 162 160 158 153 142 130 112 84 64 52 40 34 28 21 13 9 7 6 6 7 7 7 8 7 7 7 7 8 8 9 9 11 11 9 8 7 6 7 7 6 4 3 2 1 3 8 10 9 7 5 5 5 5 5 7 11 13 15 15 15 14 14 15 17 22 27 25 18 2 193 189 187 185 184 186 187 186
148 148 148 151 155 159 163 165 165 162 159 155 147 139 123 91 69 53 39 32 26 18 10 6 5 5 6 6 5 6 6 6 6 6 7 8 9 10 11 12 12 12 11 9 8 9 9 7 5 5 4 3 4 7 11 11 10 8 6 6 6 7 10 12 15 19 20 19 18 19 20 22 26 30 32 32 32 36 93 174 180 181 181 181 182
149 149 150 153 158 163 168 170 168 164 161 157 151 143 127 95 67 45 34 27 18 10 6 3 2 4 6 6 5 5 5 5 6 7 7 8 9 9 10 11 12 12 12 12 11 11 10 8 6 5 5 5 4 7 10 11 12 12 10 8 8 10 12 13 16 21 24 24 24 23 23 25 29 31 32 34 34 32 30 40 104 162 173 176 179